Volver al catálogo

INTELSAT 33E DEB

ActivoMEO
NORAD 64408·DEBRIS· XX

Lanzado Aug 24, 2016 desde Guiana Space Centre

Loading…

Próximos Pases (próximas 24 horas)

TLE

ActualizadoSource: Space-Track

Época: Sep 13, 2026, 17:28 UTC

1 64408U 16053AN  26256.72846441 -.00000062  00000-0  00000+0 0  9992
2 64408   3.1600  85.2169 0760725   1.6991 358.9341  1.03213769  6997

Sigue INTELSAT 33E DEB en tiempo real con AllMySat

Download on the App Store